Orbital Elements at Epoch 2459200.5 (2020-Dec-17.0) TDB
Reference: JPL 21 (heliocentric ecliptic J2000)
Element | Value | Uncertainty (1-sigma) | Units |
e | .103375295368724 | 3.5569e-08 | |
a | 2.263468655786518 | 1.105e-08 | au |
q | 2.029481914936738 | 8.3275e-08 | au |
i | 6.935651742353757 | 4.8533e-06 | deg |
node | 286.0815745609795 | 3.313e-05 | deg |
peri | 310.6123441847085 | 4.1662e-05 | deg |
M | 266.6254540374089 | 2.5017e-05 | deg |
tp | 2459523.116188799529 (2021-Nov-04.61618880) | 8.647e-05 | TDB |
period | 1243.82749892418 3.41 | 9.1086e-06 2.494e-08 | d yr |
n | .2894292016468311 | 2.1195e-09 | deg/d |
Q | 2.497455396636298 | 1.2193e-08 | au |
|
| | Orbit Determination Parameters
Additional Information
|